Miscellaneous Local Product
Issued by NWS North Platte, NE

Home | Current Version | Previous Version | Text Only | Print | Product List | Glossary On
Versions: 1 2 3 4 5 6 7 8 9 10 11 12 13 14 15 16 17 18 19 20 21 22 23 24 25 26 27 28 29 30 31 32 33 34 35 36 37 38 39 40 41 42 43 44 45 46 47 48 49 50
000
AXUS43 KLBF 282110
MISLBF


WESTERN AND NORTH CENTRAL NEBRASKA HOURLY WEATHER ROUNDUP
NATIONAL WEATHER SERVICE NORTH PLATTE NE
300 PM CST WED JAN 28 2015

***STATIONS NOT REPORTING VARIABLES SUCH AS SKY/WEATHER OR
PRESSURE ARE PROVIDED BY THE NEBRASKA DEPARTMENT OF
ROADS...RAWS...AND APRS NETWORKS...AND ARE NOT UNDER
NATIONAL WEATHER SERVICE QUALITY CONTROL***

...OBSERVATIONS IN AND NEAR THE EASTERN PANHANDLE OF NEBRASKA...

CITY           SKY/WX    TMP DP  RH WIND       PRES   REMARKS
PINE RIDGE     CLOUDY    54  28  36 NW12      29.95R
CHADRON        CLOUDY    52  36  54 NW22G32   29.99R
ALLIANCE       PTSUNNY   56  30  37 NW29G39   29.96R
SIDNEY         MOSUNNY   56  33  42 NW32G45   30.00R
WHITECLAY        N/A     52  32  45 W12         N/A
CRESCENT LAKE    N/A     57  28  33 NW20G30     N/A
LISCO            N/A     55  35  46 W26         N/A
LEWELLEN         N/A     64  27  24 W21         N/A
$$

...OBSERVATIONS IN NORTH CENTRAL NEBRASKA...

CITY           SKY/WX    TMP DP  RH WIND       PRES   REMARKS
VALENTINE      PTSUNNY   58  27  30 NW24G36   29.81R
THEDFORD       SUNNY     62  31  31 NW25G40   29.82R
AINSWORTH      SUNNY     61  29  29 NW29G36   29.78R
O`NEILL        SUNNY     63  36  36 NW18G26   29.70S
ORD            SUNNY     66  32  28 NW24G31   29.70R
BROKEN BOW     SUNNY     66  34  30 NW23G37   29.75R
BROWNLEE         N/A     60  30  32 NW26        N/A
VALENTINE NWR    N/A     62  31  31 NW22G29     N/A
SPRINGVIEW       N/A     63  31  30 NW18G30     N/A
HALSEY           N/A     63  31  29 NW16G26     N/A
BREWSTER         N/A     68  32  26 N21         N/A
ROSE             N/A     66  36  32 SW24        N/A
NEWPORT          N/A     63  34  33 NW26        N/A
SARGENT          N/A     64  34  33 N9G18       N/A
COMSTOCK         N/A     71  34  25 NW16        N/A
CHAMBERS         N/A     63  35  35 W3G16       N/A
EWING            N/A     63  40  43 NW9G18      N/A
$$

...OBSERVATIONS IN SOUTHWEST NEBRASKA AND FAR NORTHEAST COLORADO...

CITY           SKY/WX    TMP DP  RH WIND       PRES   REMARKS
WRAY           FAIR      64  31  28 NW29G47   29.94S
HOLYOKE        FAIR      63  32  31 NW25G36   29.94R
IMPERIAL       SUNNY     63  31  30 NW32G41   29.89R
OGALLALA       MOSUNNY   63  32  31 NW32G41   29.89R
NORTH PLATTE   SUNNY     65  29  25 NW26G35   29.83R
MCCOOK         SUNNY     69  31  24 NW25G39   29.82R
LEXINGTON      SUNNY     67  33  27 NW25G32   29.77R
BRADY            N/A     66  34  31 SW3G16      N/A
GOTHENBURG       N/A     65  29  26 NW16        N/A
CALLAWAY         N/A     64  37  36 NW20        N/A
$$

...NORTH PLATTE AREA...

CITY           SKY/WX    TMP DP  RH WIND       PRES   REMARKS
AIRPORT        SUNNY     65  29  25 NW26G35   29.83R
$$

...SOME WEATHER OBSERVATIONS FROM AROUND THE REGION...

CITY           SKY/WX    TMP DP  RH WIND       PRES   REMARKS
DENVER         MOSUNNY   59  18  20 NW24G35   30.05R
LARAMIE        PTSUNNY   44  25  47 W30G37    30.13R
CHEYENNE       CLOUDY    49  27  42 NW25G41   30.07R
SCOTTSBLUFF      N/A     49  38  65 NW22G32   30.03R
RAPID CITY     CLOUDY    56  25  30 NW29G38   29.92R
PIERRE         MOSUNNY   56  31  38 NW29G36   29.76R
WINNER         FAIR      62  31  31 NW24G33   29.76R
SIOUX FALLS    PTSUNNY   45  35  68 CALM      29.67S
OMAHA          PTSUNNY   55  36  48 S9        29.65F
GRAND ISLAND   SUNNY     67  34  29 NW18      29.70S
KANSAS CITY    CLOUDY    72  38  29 S17G29    29.71F
WICHITA        PTSUNNY   70  37  29 W16       29.80R
HAYS           SUNNY     72  30  21 NW22G31   29.81S
LIBERAL        MOSUNNY   72  32  23 NW17      29.96S
GOODLAND       SUNNY     65  28  24 NW33G44   29.92S
$$



USA.gov is the U.S. government's official web portal to all federal, state and local government web resources and services.